Airport METAR Information

LTBA 182120Z 03010KT 360V150 CAVOK 27/23 Q1013 NOSIG

VATSIM Livefeed

Card image cap

ATC Bookings

No position booked

Card image cap

Active ATC

No controllers online

Blog

Read our latest news and get to know us better.